Regional Weather Roundup
Issued by NWS Cleveland, OH

Home | Current Version | Previous Version | Graphics & Text | Print | Product List | Glossary On
Versions: 1 2 3 4 5 6 7 8 9 10 11 12 13 14 15 16 17 18 19 20 21 22 23 24 25 26 27 28 29 30 31 32 33 34 35 36 37 38 39 40 41 42 43 44 45 46 47 48 49 50
583
ASUS41 KCLE 211000
RWRCLE
OHIO REGIONAL WEATHER ROUNDUP
NATIONAL WEATHER SERVICE WILMINGTON, OH
500 AM EST TUE FEB 21 2017

NOTE: "FAIR" INDICATES FEW OR NO CLOUDS BELOW 12,000 FEET WITH NO
SIGNIFICANT WEATHER AND/OR OBSTRUCTIONS TO VISIBILITY.

OHZ001>008-015>018-024>027-034-035-043-044-211100-
   NORTHWEST OHIO

CITY           SKY/WX    TMP DP  RH WIND       PRES   REMARKS
DEFIANCE       FAIR      38  34  85 CALM      29.99S
FINDLAY        FAIR      50  38  63 SE12      29.99F
TOLEDO EXPRESS FAIR      37  34  89 E5        29.98F
TOLEDO EXEC    FAIR      37  35  92 CALM      30.00F
LIMA           FAIR      51  41  68 S12       29.99F
$$

OHZ009>014-019>023-028>033-038-089-211100-
   NORTHEAST OHIO

CITY           SKY/WX    TMP DP  RH WIND       PRES   REMARKS
CLE-HOPKINS    CLOUDY    50  31  48 SE10      30.04F
CLE-LAKEFRONT  FAIR      50  30  46 S15       30.02S
CUY CO. ARPT   NOT AVBL
LORAIN-ELYRIA  FAIR      46  33  60 S9        30.02F
ASHTABULA      FAIR      46  31  55 SE9       30.06F
AKRON-CANTON   CLOUDY    48  31  51 SE9       30.05F
WOOSTER        NOT AVBL
MANSFIELD      FAIR      49  36  61 S9        30.03S
YOUNGSTOWN     CLOUDY    47  30  51 SE13      30.06F
$$

OHZ042-051>053-060>062-070>072-077>081-211100-
  SOUTHWEST OHIO

CITY           SKY/WX    TMP DP  RH WIND       PRES   REMARKS
CINC-COVINGTON CLOUDY    51  41  68 S7        30.01F
CINC-LUNKEN    FAIR      42  41  96 CALM      30.03F
HAMILTON       FAIR      41  39  93 CALM      30.02F
DAYTON         NOT AVBL
WRIGHT-PAT AFB FAIR      47  43  85 CALM      30.00F
DAYTON GENERAL FAIR      50  40  68 S8        30.01S
WILMINGTON     FAIR      47  40  76 SE6       30.02F
$$

OHZ036-037-039>041-045>050-054>059-063>069-073>076-082>088-211100-
  CENTRAL AND SOUTHEAST OHIO

CITY           SKY/WX    TMP DP  RH WIND       PRES   REMARKS
COLUMBUS       CLOUDY    50  38  63 SE3       30.03S
OSU AIRPORT    FAIR      49  39  68 SE6       30.03F
BOLTON FIELD   NOT AVBL
RICKENBACK AFB NOT AVBL
NEWARK         FAIR      40  37  89 CALM      30.04F
MARION         FAIR      49  37  63 S9        30.02F
LANCASTER      FAIR      41  38  89 CALM      30.04F
ZANESVILLE     FAIR      42  37  82 CALM      30.06R
NEW PHILLY     FAIR      47  35  63 CALM      30.07R
$$




USA.gov is the U.S. government's official web portal to all federal, state and local government web resources and services.